| time (UTC) | temp F | wind direction | speed MPH | gust MPH | rain 1hr in | rain 24hr in | rain mn in | humidity % | barometer mb |
| 20260831145004 | 71 | 202 | 1.0 | 7.0 | 0.00 | 0.20 | 0.19 | 99 | 1012.2 |
| 20260831144004 | 70 | 313 | 1.0 | 5.0 | 0.00 | 0.20 | 0.19 | 99 | 1012.3 |
| 20260831143004 | 70 | 75 | 2.0 | 5.0 | 0.00 | 0.20 | 0.19 | 99 | 1012.3 |
| 20260831142004 | 69 | 60 | 2.0 | 3.0 | 0.00 | 0.20 | 0.19 | 99 | 1012.2 |
| 20260831141003 | 69 | 75 | 1.0 | 5.0 | 0.00 | 0.20 | 0.19 | 99 | 1012.4 |
| 20260831135004 | 69 | 15 | 1.0 | 3.0 | 0.00 | 0.20 | 0.19 | 99 | 1012.7 |
| 20260831134004 | 69 | 133 | 2.0 | 6.0 | 0.00 | 0.20 | 0.19 | 99 | 1012.8 |
| 20260831133004 | 69 | 321 | 1.0 | 5.0 | 0.00 | 0.20 | 0.19 | 99 | 1012.5 |
| 20260831132003 | 69 | 77 | 1.0 | 5.0 | 0.00 | 0.20 | 0.19 | 99 | 1012.5 |
| 20260831131004 | 69 | 36 | 2.0 | 7.0 | 0.00 | 0.20 | 0.19 | 99 | 1012.5 |
| 20260831130003 | 68 | 12 | 2.0 | 5.0 | 0.00 | 0.20 | 0.19 | 99 | 1012.7 |
| 20260831124004 | 68 | 2 | 2.0 | 3.0 | 0.00 | 0.20 | 0.19 | 99 | 1012.6 |
| 20260831123004 | 68 | 349 | 2.0 | 5.0 | 0.00 | 0.20 | 0.19 | 99 | 1012.5 |
| 20260831122003 | 68 | 76 | 2.0 | 6.0 | 0.00 | 0.20 | 0.19 | 99 | 1012.6 |
| 20260831121004 | 68 | 82 | 2.0 | 5.0 | 0.00 | 0.20 | 0.19 | 99 | 1012.6 |
| 20260831120004 | 68 | 39 | 2.0 | 5.0 | 0.00 | 0.20 | 0.19 | 99 | 1012.7 |
| 20260831115004 | 68 | 63 | 2.0 | 6.0 | 0.00 | 0.20 | 0.19 | 99 | 1012.6 |
| 20260831114004 | 68 | 356 | 2.0 | 5.0 | 0.00 | 0.20 | 0.19 | 99 | 1012.8 |
| 20260831113004 | 68 | 266 | 2.0 | 5.0 | 0.00 | 0.20 | 0.19 | 99 | 1012.5 |
| 20260831111004 | 67 | 17 | 2.0 | 3.0 | 0.00 | 0.20 | 0.19 | 99 | 1012.6 |
| 20260831110004 | 67 | 40 | 1.0 | 3.0 | 0.00 | 0.20 | 0.19 | 99 | 1012.4 |
| 20260831105004 | 67 | 54 | 1.0 | 5.0 | 0.00 | 0.20 | 0.19 | 99 | 1012.6 |
| 20260831104004 | 67 | 83 | 2.0 | 5.0 | 0.00 | 0.20 | 0.19 | 99 | 1012.7 |
| 20260831103005 | 67 | 98 | 2.0 | 3.0 | 0.06 | 0.20 | 0.19 | 99 | 1012.7 |
| 20260831101004 | 67 | 90 | 2.0 | 5.0 | 0.06 | 0.21 | 0.19 | 99 | 1013.0 |
| 20260831100004 | 67 | 357 | 1.0 | 3.0 | 0.06 | 0.21 | 0.19 | 99 | 1013.0 |
| 20260831095004 | 67 | 10 | 2.0 | 5.0 | 0.06 | 0.21 | 0.19 | 99 | 1013.0 |
| 20260831094004 | 67 | 11 | 2.0 | 2.0 | 0.10 | 0.20 | 0.19 | 99 | 1012.9 |
| 20260831093005 | 67 | 59 | 2.0 | 3.0 | 0.13 | 0.15 | 0.13 | 99 | 1013.1 |
| 20260831092004 | 67 | 91 | 1.0 | 3.0 | 0.13 | 0.15 | 0.13 | 99 | 1013.1 |
| 20260831091004 | 67 | 67 | 1.0 | 3.0 | 0.13 | 0.15 | 0.13 | 99 | 1013.2 |
| 20260831085004 | 67 | 22 | 2.0 | 3.0 | 0.13 | 0.15 | 0.13 | 99 | 1013.2 |
| 20260831084004 | 67 | 56 | 2.0 | 5.0 | 0.09 | 0.10 | 0.09 | 99 | 1013.4 |
| 20260831083004 | 67 | 4 | 1.0 | 2.0 | 0.00 | 0.02 | 0.00 | 99 | 1013.2 |
| 20260831082004 | 67 | 45 | 1.0 | 2.0 | 0.00 | 0.02 | 0.00 | 99 | 1013.5 |
| 20260831081004 | 67 | 30 | 1.0 | 3.0 | 0.00 | 0.02 | 0.00 | 99 | 1013.8 |
| 20260831075004 | 67 | 61 | 1.0 | 3.0 | 0.00 | 0.02 | 0.00 | 99 | 1014.1 |
| 20260831074004 | 67 | 0 | 1.0 | 2.0 | 0.00 | 0.02 | 0.00 | 99 | 1014.1 |
| 20260831073004 | 67 | 24 | 0.0 | 2.0 | 0.00 | 0.02 | 0.00 | 99 | 1014.2 |
| 20260831072004 | 68 | 357 | 0.0 | 1.0 | 0.00 | 0.02 | 0.00 | 99 | 1014.4 |
| 20260831071004 | 68 | 16 | 0.0 | 1.0 | 0.00 | 0.02 | 0.00 | 99 | 1014.4 |
| 20260831070004 | 68 | 356 | 1.0 | 1.0 | 0.00 | 0.02 | 0.00 | 99 | 1014.3 |
| 20260831065003 | 68 | 37 | 0.0 | 2.0 | 0.00 | 0.02 | 0.00 | 99 | 1014.4 |
| 20260831064005 | 68 | 338 | 1.0 | 2.0 | 0.00 | 0.02 | 0.00 | 99 | 1014.4 |
| 20260831063004 | 68 | 5 | 1.0 | 3.0 | 0.00 | 0.02 | 0.00 | 99 | 1014.2 |
| 20260831062004 | 68 | 36 | 1.0 | 3.0 | 0.00 | 0.02 | 0.00 | 99 | 1014.4 |
| 20260831061003 | 68 | 2 | 1.0 | 2.0 | 0.00 | 0.02 | 0.00 | 99 | 1014.3 |
| 20260831060004 | 68 | 24 | 1.0 | 2.0 | 0.00 | 0.02 | 0.00 | 99 | 1014.3 |
| 20260831055004 | 68 | 45 | 1.0 | 2.0 | 0.00 | 0.02 | 0.00 | 99 | 1014.7 |
| 20260831054004 | 68 | 0 | 0.0 | 1.0 | 0.00 | 0.02 | 0.00 | 99 | 1015.0 |
| 20260831053004 | 68 | 2 | 0.0 | 1.0 | 0.00 | 0.02 | 0.00 | 99 | 1014.9 |
| 20260831051004 | 68 | 20 | 1.0 | 3.0 | 0.00 | 0.02 | 0.00 | 99 | 1014.8 |
| 20260831045004 | 68 | 58 | 1.0 | 2.0 | 0.00 | 0.01 | 0.01 | 99 | 1014.6 |
| 20260831044005 | 68 | 26 | 1.0 | 2.0 | 0.00 | 0.01 | 0.01 | 99 | 1014.8 |
| 20260831043003 | 68 | 3 | 1.0 | 1.0 | 0.00 | 0.01 | 0.01 | 99 | 1015.1 |
| 20260831042004 | 68 | 353 | 1.0 | 1.0 | 0.00 | 0.01 | 0.01 | 99 | 1015.0 |
| 20260831040004 | 68 | 31 | 1.0 | 1.0 | 0.00 | 0.01 | 0.01 | 99 | 1014.8 |
| 20260831035003 | 68 | 16 | 0.0 | 2.0 | 0.00 | 0.01 | 0.01 | 99 | 1014.8 |
| 20260831033004 | 68 | 55 | 1.0 | 3.0 | 0.00 | 0.01 | 0.01 | 99 | 1014.8 |
| 20260831031004 | 68 | 19 | 1.0 | 3.0 | 0.00 | 0.01 | 0.01 | 99 | 1014.8 |
| 20260831030004 | 68 | 10 | 1.0 | 2.0 | 0.00 | 0.01 | 0.01 | 99 | 1014.7 |
| 20260831025004 | 68 | 9 | 1.0 | 2.0 | 0.00 | 0.01 | 0.01 | 99 | 1014.7 |
| 20260831023004 | 68 | 26 | 1.0 | 3.0 | 0.00 | 0.01 | 0.01 | 99 | 1014.4 |
| 20260831022004 | 68 | 94 | 2.0 | 3.0 | 0.00 | 0.01 | 0.01 | 99 | 1014.6 |
| 20260831021004 | 68 | 29 | 1.0 | 1.0 | 0.00 | 0.01 | 0.01 | 99 | 1014.6 |
| 20260831020003 | 68 | 354 | 0.0 | 2.0 | 0.00 | 0.01 | 0.01 | 99 | 1014.5 |
| 20260831015004 | 68 | 6 | 1.0 | 1.0 | 0.00 | 0.01 | 0.01 | 99 | 1014.6 |
| 20260831014004 | 68 | 4 | 1.0 | 1.0 | 0.00 | 0.01 | 0.01 | 99 | 1014.7 |
| 20260831013005 | 68 | 28 | 0.0 | 1.0 | 0.00 | 0.01 | 0.01 | 99 | 1014.7 |
| 20260831012004 | 68 | 357 | 1.0 | 1.0 | 0.00 | 0.01 | 0.01 | 99 | 1014.4 |
| 20260831011004 | 69 | 353 | 1.0 | 1.0 | 0.00 | 0.01 | 0.01 | 99 | 1014.5 |
| 20260831005004 | 69 | 352 | 1.0 | 1.0 | 0.00 | 0.01 | 0.01 | 99 | 1014.3 |
| 20260831004004 | 69 | 313 | 1.0 | 1.0 | 0.00 | 0.01 | 0.01 | 99 | 1014.3 |
| 20260831003003 | 69 | 333 | 1.0 | 1.0 | 0.00 | 0.01 | 0.01 | 99 | 1014.0 |
| 20260831001004 | 69 | 354 | 1.0 | 1.0 | 0.00 | 0.01 | 0.01 | 99 | 1014.2 |
| 20260831000004 | 69 | 351 | 1.0 | 3.0 | 0.00 | 0.01 | 0.01 | 99 | 1014.0 |
| 20260830235003 | 69 | 0 | 0.0 | 2.0 | 0.00 | 0.03 | 0.01 | 99 | 1014.1 |
| 20260830234004 | 69 | 48 | 1.0 | 2.0 | 0.00 | 0.08 | 0.01 | 99 | 1013.9 |
| 20260830233004 | 69 | 5 | 1.0 | 2.0 | 0.00 | 0.11 | 0.01 | 99 | 1013.8 |
| 20260830232003 | 69 | 30 | 1.0 | 3.0 | 0.00 | 0.11 | 0.01 | 99 | 1013.7 |
| 20260830225003 | 70 | 353 | 1.0 | 2.0 | 0.00 | 0.14 | 0.01 | 99 | 1013.7 |
| 20260830224004 | 70 | 44 | 0.0 | 2.0 | 0.00 | 0.17 | 0.01 | 99 | 1013.5 |
| 20260830223004 | 70 | 6 | 0.0 | 1.0 | 0.00 | 0.19 | 0.01 | 99 | 1013.6 |
| 20260830221003 | 70 | 4 | 0.0 | 1.0 | 0.00 | 0.24 | 0.01 | 99 | 1013.9 |
| 20260830220004 | 70 | 5 | 1.0 | 1.0 | 0.00 | 0.24 | 0.01 | 99 | 1014.0 |
| 20260830215004 | 70 | 350 | 1.0 | 3.0 | 0.00 | 0.25 | 0.01 | 99 | 1014.0 |
| 20260830214004 | 70 | 20 | 0.0 | 2.0 | 0.00 | 0.26 | 0.01 | 99 | 1013.8 |
| 20260830213003 | 70 | 349 | 0.0 | 1.0 | 0.00 | 0.26 | 0.01 | 99 | 1013.8 |
| 20260830212003 | 70 | 11 | 0.0 | 2.0 | 0.00 | 0.26 | 0.01 | 99 | 1013.8 |
| 20260830211003 | 70 | 336 | 1.0 | 2.0 | 0.00 | 0.26 | 0.01 | 99 | 1013.7 |
| 20260830210004 | 70 | 69 | 0.0 | 2.0 | 0.00 | 0.26 | 0.01 | 99 | 1013.5 |
| 20260830205004 | 71 | 347 | 1.0 | 1.0 | 0.00 | 0.26 | 0.01 | 99 | 1013.9 |
| 20260830204003 | 71 | 0 | 1.0 | 1.0 | 0.00 | 0.26 | 0.01 | 98 | 1014.1 |
| 20260830202004 | 71 | 358 | 1.0 | 1.0 | 0.00 | 0.26 | 0.01 | 98 | 1014.1 |
| 20260830201004 | 71 | 351 | 1.0 | 3.0 | 0.00 | 0.26 | 0.01 | 98 | 1013.9 |
| 20260830193004 | 72 | 329 | 1.0 | 2.0 | 0.00 | 0.28 | 0.01 | 97 | 1014.1 |
| 20260830192004 | 71 | 330 | 1.0 | 2.0 | 0.00 | 0.28 | 0.01 | 97 | 1013.9 |
| 20260830191003 | 71 | 4 | 1.0 | 3.0 | 0.00 | 0.28 | 0.01 | 97 | 1014.0 |
| 20260830190004 | 71 | 90 | 0.0 | 2.0 | 0.00 | 0.28 | 0.01 | 97 | 1013.6 |
| 20260830185004 | 71 | 350 | 1.0 | 3.0 | 0.00 | 0.29 | 0.01 | 97 | 1013.5 |
| 20260830184004 | 71 | 349 | 1.0 | 2.0 | 0.00 | 0.30 | 0.01 | 97 | 1013.7 |
| 20260830183004 | 71 | 18 | 2.0 | 3.0 | 0.00 | 0.31 | 0.01 | 97 | 1013.6 |
| 20260830182004 | 71 | 20 | 0.0 | 3.0 | 0.00 | 0.31 | 0.01 | 99 | 1013.5 |
| 20260830181004 | 70 | 21 | 0.0 | 2.0 | 0.00 | 0.32 | 0.01 | 99 | 1013.7 |
| 20260830180004 | 70 | 358 | 1.0 | 2.0 | 0.00 | 0.32 | 0.01 | 99 | 1013.7 |
| 20260830175004 | 70 | 348 | 1.0 | 3.0 | 0.00 | 0.33 | 0.01 | 99 | 1013.8 |
| 20260830174003 | 71 | 43 | 1.0 | 2.0 | 0.00 | 0.33 | 0.01 | 98 | 1013.7 |
| 20260830173004 | 70 | 24 | 1.0 | 2.0 | 0.00 | 0.34 | 0.01 | 98 | 1013.8 |
| 20260830172003 | 70 | 45 | 1.0 | 3.0 | 0.00 | 0.34 | 0.01 | 99 | 1013.9 |
| 20260830171003 | 70 | 22 | 0.0 | 3.0 | 0.00 | 0.34 | 0.01 | 99 | 1013.9 |
| 20260830170004 | 69 | 2 | 1.0 | 3.0 | 0.00 | 0.34 | 0.01 | 99 | 1014.0 |
| 20260830165004 | 68 | 32 | 1.0 | 2.0 | 0.00 | 0.34 | 0.01 | 99 | 1014.1 |
| 20260830163004 | 67 | 28 | 1.0 | 5.0 | 0.00 | 0.34 | 0.01 | 99 | 1014.3 |
| 20260830162004 | 67 | 55 | 1.0 | 2.0 | 0.00 | 0.34 | 0.01 | 99 | 1014.2 |
| 20260830161004 | 67 | 28 | 1.0 | 2.0 | 0.00 | 0.34 | 0.01 | 99 | 1014.5 |
| 20260830160003 | 67 | 39 | 1.0 | 2.0 | 0.00 | 0.34 | 0.01 | 99 | 1014.5 |
| 20260830155004 | 67 | 27 | 1.0 | 2.0 | 0.00 | 0.34 | 0.01 | 99 | 1014.2 |
| 20260830154004 | 67 | 347 | 1.0 | 2.0 | 0.00 | 0.34 | 0.01 | 99 | 1014.1 |
| 20260830153004 | 67 | 6 | 1.0 | 2.0 | 0.00 | 0.34 | 0.01 | 99 | 1013.9 |
| 20260830152003 | 67 | 27 | 1.0 | 2.0 | 0.00 | 0.34 | 0.01 | 99 | 1013.7 |
| 20260830151004 | 67 | 4 | 1.0 | 2.0 | 0.00 | 0.34 | 0.01 | 99 | 1013.7 |